map of KDDH home
KDDH - Airport
Location
City:  Bennington, Vermont, United States
Name:William H Morse State Airport
ICAO:KDDH
FAA LID:DDH

Details
Type:Airport (Airfield)
Use:Public/Civil
Latitude:4253'28"N (42.891194)
Longitude:7314'46"W (-73.246082)
Datum:WGS 1984
Elevation:826 ft (252 m)
Variation:13.67W (WMM2015v2 magnetic declination)
0.08 annual change
Runways:1
Longest:3704 × 75 ft (1129 × 23 m), paved

Time
Time Zone:UTC-5 (DST-4)
Local Time:

Weather
METAR:KDDH 041409Z AUTO 00000KT 10SM BKN024 OVC070 07/02 A3003 RMK AO2 T00670017

Related Locations
Nearby:
Farthest:YAUG: 11690 mi / 18813 km
Augusta [Augusta Airport], WA, AU

Find:

   beyond  
but within

Other Information
Maps:
NOTAMs:
Links:
Sources:

  
  • flag of United States
  • flag of Vermont
  

Sectional Chart

Flight Planning
at skyvector.com

Satellite Image

Google Maps Satellite view

 

Copyright © 2004-2019 Karl L. Swartz. All rights reserved.
The Great Circle Mapper name and logo are trademarks of the Great Circle Mapper.
All other trademarks mentioned herein belong to their respective owners.
Please see credits for attibutions and further copyright information.

  Follow gcmap on Facebook Follow gcmap on Twitter GCmap on LinkedIn

hCard Microformat

Geo Microformat